[[{"header":{"parameterUnit":"m.s-1","parameterCategory":1,"la1":30.2991,"la2":30.254,"lo1":-89.0895,"lo2":-89.0444,"dy":0.0017,"dx":0.0017,"nx":28,"ny":28,"refTime":"2024-03-02T03:00:00:Z","depth":0,"parameterNumber":2,"parameterNumberName":"U-component_of_WINDS"},"data":[0,0,0,0,0,0,0,0,0,0,0,0,0,0,0,0,0,0,0,0,0,0,0,0,0,0,0,0,0,0,0,0,0,0,0,0,0,0,0,0,0,0,0,0,0,0,0,0,0,0,0,0,0,0,0,0,0,0,-4.0215,-4.0216,0,-4.0239,-4.0239,-4.024,-4.0155,-4.0152,-4.015,-4.0147,-4.0174,-4.0177,-4.018,0,0,0,0,0,0,0,0,0,0,0,0,0,-4.01,-4.0103,-4.0215,-4.0216,-4.0216,-4.0239,-4.0239,-4.024,-4.0155,-4.0152,-4.0149,-4.0146,-4.0173,-4.0177,-4.018,0,0,0,0,0,0,0,0,0,0,0,0,0,-4.014,-4.0104,-4.0215,-4.0176,-4.0173,-4.0239,-4.0239,-4.024,-4.0156,-4.0152,-4.0148,-4.0145,-4.0172,-4.0176,-4.0181,-4.0286,0,0,-4.0195,-4.0197,0,0,0,0,0,0,0,0,-4.0138,-4.0144,-4.0182,-4.0179,-4.0176,-4.019,-4.0209,-4.0255,-4.0157,-4.0162,-4.0147,-4.0143,-4.0183,-4.0186,-4.0199,-4.0287,-4.0289,-4.0196,-4.0198,-4.02,-4.0202,0,0,0,0,0,0,0,-4.0135,-4.0143,-4.0225,-4.0182,-4.0179,-4.0159,-4.016,-4.0217,-4.0194,-4.0162,-4.0156,-4.0159,-4.018,-4.0195,-4.0199,-4.0289,-4.0195,-4.02,-4.0202,-4.0204,-4.0467,-4.0471,0,0,0,0,0,0,-4.0137,-4.0141,-4.0224,-4.0225,-4.0147,-4.0164,-4.0166,-4.0189,-4.0193,-4.019,-4.0163,-4.0155,-4.0189,-4.0194,-4.02,-4.0323,-4.02,-4.0205,-4.0207,-4.0462,-4.0467,-4.0472,0,0,0,0,0,0,-4.0135,-4.0145,-4.0223,-4.0182,-4.019,-4.017,-4.0197,-4.0192,-4.0206,-4.0194,-4.0189,-4.0182,-4.0186,-4.0193,-4.0265,-4.0323,-4.0207,-4.0211,-4.0457,-4.0464,-4.047,-4.0572,0,0,0,0,0,0,-4.0132,-4.0145,-4.0183,-4.0183,-4.0192,-4.0287,-4.0201,-4.0195,-4.0214,-4.0205,-4.021,-4.0207,-4.0184,-4.0259,-4.027,-4.0327,-4.0215,-4.0452,-4.046,-4.0468,-4.0563,-4.0581,-4.0596,0,0,0,0,0,-4.0128,-4.0211,-4.0186,-4.0196,-4.024,-4.0291,-4.0296,-4.0266,-4.0219,-4.0258,-4.0251,-4.0207,-4.0316,-4.0267,-4.0279,-4.0339,-4.0448,-4.0458,-4.0467,-4.0556,-4.0577,-4.0596,0,0,0,0,0,0,-4.0219,-4.0211,-4.0182,-4.0268,-4.0281,-4.0276,-4.0325,-4.029,-4.0317,-4.0307,-4.027,-4.0272,-4.0351,-4.0352,-4.0298,-4.0442,-4.0374,-4.0386,-4.0437,-4.0458,-4.0474,-4.0471,-4.0218,0,0,0,0,0,-4.0249,-4.029,-4.0281,-4.0357,-4.0365,-4.0345,-4.0365,-4.0341,-4.0354,-4.0359,-4.0356,-4.0371,-4.0408,-4.0433,-4.0467,-4.0564,-4.0564,-4.0611,-4.0627,-4.0641,-4.0651,-4.0704,-4.0725,-4.0503,-4.0503,-4.0503,0,0,-4.0312,-4.0312,-4.034,-4.0376,-4.0383,-4.0427,-4.0349,-4.0399,-4.0432,-4.0366,-4.0434,-4.0434,-4.0447,-4.0533,-4.057,-4.0536,-4.0713,-4.0653,-4.0664,-4.0667,-4.0716,-4.0737,-4.0756,-4.0509,-4.0508,-4.0507,0,0,-4.0448,-4.0452,-4.0517,-4.0526,-4.0538,-4.0524,-4.054,-4.0542,-4.0538,-4.0606,-4.0558,-4.0598,-4.0662,-4.0674,-4.0689,-4.0833,-4.0795,-4.0846,-4.093,-4.0982,-4.1,-4.1015,-4.1067,-4.1086,-4.0857,-4.0857,-4.0857,0,-4.0524,-4.0588,-4.0555,-4.0608,-4.0626,-4.0569,-4.0635,-4.0646,-4.0669,-4.0683,-4.0644,-4.0725,-4.0731,-4.0819,-4.0854,-4.0868,-4.0886,-4.0844,-4.1,-4.1015,-4.1029,-4.1077,-4.1097,-4.0863,-4.0862,-4.0862,-4.0861,0,-4.0681,-4.0726,-4.0777,-4.08,-4.0824,-4.0884,-4.0861,-4.0889,-4.0865,-4.0855,-4.0926,-4.0931,-4.0965,-4.0984,-4.096,-4.107,-4.1048,-4.1006,-4.0937,-4.1056,-4.1102,-4.112,-4.0872,-4.0869,-4.0868,-4.0866,0,0,-4.0872,-4.0878,-4.0898,-4.0908,-4.0919,-4.0953,-4.1012,-4.1045,-4.107,-4.1089,-4.1137,-4.1195,-4.1156,-4.1173,-4.115,-4.1196,-4.1311,-4.1148,-4.1147,-4.1178,-4.1432,-4.1463,-4.1486,-4.1286,-4.1289,-4.1292,-4.1431,0,-4.1006,-4.1104,-4.1077,-4.1175,-4.1218,-4.1166,-4.1217,-4.123,-4.1224,-4.126,-4.1253,-4.1294,-4.124,-4.125,-4.1293,-4.1288,-4.1361,-4.1277,-4.1331,-4.1333,-4.1328,-4.1509,-4.1542,-4.1672,-4.1449,-4.1452,-4.1454,0,-4.1173,-4.1199,-4.1301,-4.1307,-4.1323,-4.1369,-4.1398,-4.1433,-4.1448,-4.144,-4.1461,-4.143,-4.1489,-4.1421,-4.1503,-4.1446,-4.1467,-4.1469,-4.1473,-4.1476,-4.14,-4.1516,-4.1713,-4.1733,-4.1481,-4.1479,-4.1477,0,-4.1303,-4.1363,-4.1432,-4.1443,-4.145,-4.1484,-4.1489,-4.15,-4.1522,-4.1549,-4.1563,-4.1596,-4.1614,-4.1642,-4.1621,-4.1574,-4.1707,-4.1637,-4.1702,-4.1703,-4.1731,-4.1729,-4.1933,-4.1747,-4.1747,-4.1746,-4.1746,0,-4.1453,-4.1518,-4.149,-4.1532,-4.1604,-4.1575,-4.1647,-4.1646,-4.1657,-4.1699,-4.1658,-4.1699,-4.167,-4.171,-4.1694,-4.1765,-4.1773,-4.1769,-4.1764,-4.1772,-4.1773,-4.1784,-4.1774,-4.1751,-4.175,-4.1749,-4.1748,0,-4.1608,-4.1592,-4.1664,-4.1667,-4.1669,-4.1722,-4.1724,-4.1765,-4.1756,-4.1811,-4.1822,-4.181,-4.1854,-4.1837,-4.1884,-4.1874,-4.1964,-4.1948,-4.1959,-4.1954,-4.202,-4.2014,-4.2238,-4.2266,-4.2063,-4.2065,-4.2066,0,-4.1705,-4.1753,-4.1761,-4.1787,-4.1795,-4.1836,-4.1859,-4.1833,-4.1858,-4.188,-4.1919,-4.1959,-4.199,-4.2064,-4.206,-4.2097,-4.208,-4.2156,-4.2085,-4.2092,-4.2081,-4.2078,-4.2083,-4.217,-4.2172,-4.2174,-4.2176,0,-4.1878,-4.1868,-4.1902,-4.1934,-4.1962,-4.1986,-4.2007,-4.2031,-4.2006,-4.2037,-4.2082,-4.2106,-4.2155,-4.2196,-4.223,-4.2236,-4.2203,-4.2199,-4.2216,-4.2223,-4.2228,-4.2226,-4.1996,-4.2193,-4.2191,-4.219,-4.2189,-4.2188,-4.2006,-4.2047,-4.2059,-4.2099,-4.2112,-4.2133,-4.2171,-4.2169,-4.2205,-4.2242,-4.2226,-4.2278,-4.2294,-4.2335,-4.2347,-4.2388,-4.2358,-4.2383,-4.2389,-4.2395,-4.2404,-4.2223,-4.2394,-4.2394,-4.2393,-4.2393,-4.2392,0,-4.2176,-4.2182,-4.2219,-4.2249,-4.2282,-4.2248,-4.2269,-4.2299,-4.2345,-4.2362,-4.2394,-4.2447,-4.2487,-4.2488,-4.2526,-4.2559,-4.2545,-4.257,-4.2566,-4.2569,-4.2428,-4.2409,-4.2581,-4.2581,-4.2581,-4.2581,-4.2581,-4.2581,-4.2268,-4.2336,-4.2328,-4.2404,-4.241,-4.246,-4.2475,-4.2495,-4.2509,-4.2569,-4.2603,-4.2603,-4.2614,-4.2653,-4.269,-4.2689,-4.2705,-4.2736,-4.2729,-4.2597,-4.2579,-4.2561,-4.2543,-4.274,-4.274,-4.2866,-4.2867,-4.2868]},{"header":{"parameterUnit":"m.s-1","parameterCategory":1,"la1":30.2991,"la2":30.254,"lo1":-89.0895,"lo2":-89.0444,"dy":0.0017,"dx":0.0017,"nx":28,"ny":28,"refTime":"2024-03-02T03:00:00:Z","depth":0,"parameterNumber":3,"parameterNumberName":"V-component_of_WINDS"},"data":[0,0,0,0,0,0,0,0,0,0,0,0,0,0,0,0,0,0,0,0,0,0,0,0,0,0,0,0,0,0,0,0,0,0,0,0,0,0,0,0,0,0,0,0,0,0,0,0,0,0,0,0,0,0,0,0,0,0,0.5914,0.5915,0,0.594,0.594,0.594,0.5991,0.5992,0.5993,0.5994,0.6017,0.6017,0.6017,0,0,0,0,0,0,0,0,0,0,0,0,0,0.5908,0.5908,0.5914,0.5915,0.5915,0.594,0.594,0.594,0.5991,0.5992,0.5993,0.5994,0.6018,0.6017,0.6017,0,0,0,0,0,0,0,0,0,0,0,0,0,0.592,0.5908,0.5914,0.5943,0.5946,0.594,0.594,0.5941,0.599,0.5992,0.5993,0.5995,0.6018,0.6017,0.6017,0.5984,0,0,0.6015,0.6015,0,0,0,0,0,0,0,0,0.5919,0.592,0.5938,0.5941,0.5944,0.5964,0.5947,0.5955,0.599,0.5973,0.5994,0.5996,0.5998,0.5999,0.6001,0.5985,0.5986,0.6015,0.6015,0.6015,0.6015,0,0,0,0,0,0,0,0.5918,0.5919,0.5924,0.5939,0.5942,0.5954,0.5958,0.5948,0.5977,0.5975,0.5979,0.5981,0.6,0.6001,0.6002,0.5986,0.6015,0.6015,0.6015,0.6014,0.5947,0.5945,0,0,0,0,0,0,0.5913,0.5918,0.5923,0.5925,0.5935,0.5953,0.5957,0.5956,0.5977,0.5982,0.598,0.5983,0.6001,0.6002,0.6003,0.5967,0.6015,0.6014,0.6014,0.5948,0.5947,0.5945,0,0,0,0,0,0,0.5913,0.5913,0.5922,0.5923,0.5925,0.5952,0.595,0.5956,0.5957,0.5981,0.5986,0.5976,0.6002,0.6003,0.5989,0.5969,0.6014,0.6014,0.595,0.5948,0.5946,0.5895,0,0,0,0,0,0,0.5913,0.5913,0.5901,0.5922,0.5925,0.5908,0.5949,0.5955,0.5956,0.5961,0.5979,0.5983,0.6004,0.5989,0.5988,0.5969,0.6013,0.5952,0.5949,0.5946,0.5899,0.5891,0.5885,0,0,0,0,0,0.5912,0.5884,0.59,0.59,0.591,0.5907,0.5908,0.5934,0.5954,0.5943,0.5958,0.5982,0.5971,0.5987,0.5987,0.5967,0.5953,0.595,0.5947,0.5902,0.5893,0.5885,0,0,0,0,0,0,0.5859,0.5888,0.5905,0.5883,0.5893,0.5916,0.5901,0.5923,0.5926,0.593,0.596,0.5964,0.5946,0.5955,0.5972,0.5937,0.5966,0.5962,0.5932,0.5924,0.5917,0.5916,0.6013,0,0,0,0,0,0.5845,0.584,0.5865,0.5844,0.5848,0.5874,0.5873,0.5892,0.5902,0.5906,0.5921,0.5929,0.5928,0.5926,0.5926,0.59,0.5905,0.5886,0.5879,0.5874,0.587,0.5859,0.5851,0.5934,0.5934,0.5934,0,0,0.5815,0.583,0.5825,0.5834,0.5843,0.5838,0.5876,0.5869,0.5865,0.5905,0.5893,0.5904,0.5915,0.5895,0.5887,0.5902,0.5849,0.5869,0.5865,0.5864,0.5855,0.5847,0.584,0.5931,0.5932,0.5932,0,0,0.5759,0.5769,0.5754,0.5763,0.5777,0.5795,0.5791,0.5811,0.582,0.5809,0.5839,0.5835,0.5831,0.5839,0.5842,0.5791,0.5814,0.579,0.5755,0.5743,0.5737,0.5731,0.5714,0.5708,0.5786,0.5786,0.5786,0,0.572,0.5714,0.5742,0.5734,0.5737,0.5774,0.5759,0.5765,0.5778,0.578,0.5797,0.5795,0.5805,0.5788,0.5776,0.5777,0.5774,0.5788,0.5736,0.573,0.5725,0.571,0.5703,0.5783,0.5784,0.5784,0.5784,0,0.5667,0.5662,0.5647,0.5661,0.5662,0.565,0.5677,0.5675,0.5694,0.571,0.5698,0.5712,0.5717,0.5714,0.5731,0.57,0.5709,0.573,0.576,0.5714,0.57,0.5694,0.5779,0.578,0.5781,0.5782,0,0,0.5577,0.5607,0.5602,0.5609,0.5628,0.5625,0.5615,0.562,0.5619,0.5626,0.5619,0.5617,0.5637,0.5641,0.566,0.565,0.561,0.5672,0.5673,0.5661,0.5578,0.5563,0.5555,0.5625,0.5624,0.5623,0.5578,0,0.5526,0.5511,0.5537,0.5516,0.5513,0.5549,0.554,0.5551,0.5566,0.5565,0.5581,0.558,0.5606,0.5609,0.56,0.5617,0.5594,0.562,0.5619,0.5619,0.5616,0.5548,0.5531,0.5488,0.5572,0.5571,0.5571,0,0.5464,0.5471,0.545,0.5473,0.5472,0.5464,0.5472,0.5471,0.5484,0.5496,0.5501,0.5524,0.5516,0.5544,0.5534,0.5551,0.5553,0.5561,0.556,0.5561,0.5592,0.5549,0.5474,0.5468,0.5562,0.5562,0.5563,0,0.5403,0.5406,0.5395,0.54,0.5425,0.5419,0.5429,0.5444,0.5446,0.5453,0.5455,0.546,0.5463,0.5466,0.549,0.5509,0.5478,0.5508,0.5487,0.5487,0.548,0.548,0.5406,0.5478,0.5479,0.5479,0.5479,0,0.5344,0.533,0.5368,0.5361,0.5347,0.5378,0.5363,0.5376,0.5389,0.5386,0.5416,0.5412,0.5444,0.5443,0.5462,0.5451,0.5452,0.5461,0.5466,0.5459,0.5458,0.5461,0.5465,0.5477,0.5477,0.5478,0.5478,0,0.5273,0.5298,0.5288,0.5314,0.532,0.5308,0.533,0.5325,0.5342,0.5337,0.5338,0.5365,0.5366,0.539,0.5396,0.5408,0.5391,0.5401,0.5387,0.539,0.5369,0.5371,0.5295,0.5287,0.5363,0.5363,0.5362,0,0.5234,0.5225,0.525,0.525,0.526,0.5259,0.5262,0.5292,0.5294,0.5309,0.5302,0.5306,0.5311,0.5311,0.533,0.5335,0.5347,0.5319,0.5347,0.5341,0.5348,0.5349,0.5348,0.5314,0.5313,0.5312,0.5311,0,0.5164,0.5177,0.5181,0.5189,0.5192,0.5199,0.5209,0.5207,0.524,0.524,0.5243,0.5246,0.5253,0.5257,0.5266,0.5276,0.5299,0.5302,0.5298,0.5291,0.5284,0.5289,0.5372,0.5304,0.5305,0.5305,0.5306,0.5306,0.5109,0.5103,0.512,0.5124,0.5134,0.5143,0.514,0.5157,0.516,0.5169,0.5186,0.5186,0.52,0.5215,0.5223,0.5224,0.5237,0.5231,0.523,0.5228,0.5224,0.5283,0.5225,0.5225,0.5226,0.5226,0.5226,0,0.5041,0.5054,0.5057,0.507,0.5073,0.5096,0.5108,0.5109,0.5109,0.5121,0.5125,0.5129,0.5133,0.5153,0.516,0.5156,0.5167,0.5157,0.5158,0.516,0.5211,0.5215,0.5148,0.5148,0.5148,0.5148,0.5148,0.5148,0.5006,0.4998,0.5013,0.5011,0.5024,0.5025,0.5031,0.5039,0.5049,0.5052,0.5056,0.507,0.5086,0.5094,0.5099,0.5105,0.5106,0.5093,0.5102,0.5149,0.5157,0.5164,0.5167,0.5092,0.5092,0.5052,0.5052,0.5051]}]]